Durango, CO

7:49 PM MDT on May 27, 2018 (GMT -0600)
Durango-La Plata County

Weather History for KDRO - September, 2014

Change the Weather History Date:

Thursday, September 18, 2014

  Actual Average Record
Temperature  
Mean Temperature 63 °F 58 °F  
Max Temperature 84 °F 75 °F 85 °F (1980)
Min Temperature 41 °F 41 °F 21 °F (1971)
Degree Days  
Heating Degree Days 2 7  
Month to date heating degree days 37 79  
Since 1 July heating degree days 64 108  
Cooling Degree Days 0 0  
Month to date cooling degree days 8 3  
Year to date cooling degree days 300 240  
Growing Degree Days 12 (Base 50)    
Moisture  
Dew Point 39 °F    
Average Humidity 57    
Maximum Humidity 100    
Minimum Humidity 14    
Precipitation  
Precipitation 0.00 in 0.07 in 0.61 in (1985)
Month to date precipitation 0.25 1.19  
Year to date precipitation 5.88 11.16  
Sea Level Pressure  
Sea Level Pressure 29.91 in    
Wind  
Wind Speed 4 mph (NNW)    
Max Wind Speed 15 mph    
Max Gust Speed 20 mph    
Visibility 10 miles    
Events      
T = Trace of Precipitation, MM = Missing Value Source: NWS Daily Summary

Daily Weather History Graph

Daily Weather History Graph

Search for Another Location

Airport or City:

Astronomy

Sep. 18, 2014 Rise Set
Actual Time 6:55 AM MDT 7:13 PM MDT
Civil Twilight 6:29 AM MDT 7:39 PM MDT
Nautical Twilight 5:59 AM MDT 8:10 PM MDT
Astronomical Twilight 5:27 AM MDT 8:41 PM MDT
Moon 1:55 AM MDT (9/18) 4:02 PM MDT (9/18)
Length of Visible Light 13h 10m
Length of Day
12h 18m
Waning Crescent, 25% of the Moon is Illuminated
Sep 18
Waning Crescent
Sep 24
New
Oct 1
First Quarter
Oct 8
Full
Oct 15
Last Quarter

Hourly Weather History & Observations

Time (MDT) Temp. Windchill Dew Point Humidity Pressure Visibility Wind Dir Wind Speed Gust Speed Precip Events Conditions
12:53 AM 51.1 °F - 46.9 °F 86% 29.97 in 10.0 mi North 3.5 mph - N/A   Clear
1:53 AM 48.9 °F - 46.0 °F 90% 29.97 in 10.0 mi Calm Calm - N/A   Clear
3:53 AM 46.9 °F - 45.0 °F 93% 29.96 in 10.0 mi NNE 4.6 mph - N/A   Clear
4:53 AM 46.0 °F 43.9 °F 44.1 °F 93% 30.02 in 10.0 mi North 4.6 mph - N/A   Clear
5:53 AM 46.9 °F - 43.0 °F 86% 30.02 in 10.0 mi Calm Calm - N/A   Clear
6:53 AM 43.0 °F - 42.1 °F 97% 30.03 in 10.0 mi Calm Calm - N/A   Clear
7:53 AM 48.0 °F - 45.0 °F 89% 30.03 in 10.0 mi Calm Calm - N/A   Clear
8:53 AM 54.0 °F - 46.9 °F 77% 30.02 in 10.0 mi Calm Calm - N/A   Clear
9:53 AM 62.1 °F - 46.9 °F 58% 29.98 in 10.0 mi Calm Calm - N/A   Clear
10:53 AM 69.1 °F - 44.1 °F 40% 29.95 in 10.0 mi Calm Calm - N/A   Clear
11:53 AM 75.0 °F - 37.9 °F 26% 29.91 in 10.0 mi SSW 5.8 mph - N/A   Clear
12:53 PM 78.1 °F - 34.0 °F 20% 29.88 in 10.0 mi ESE 4.6 mph - N/A   Clear
1:53 PM 80.1 °F - 28.9 °F 15% 29.86 in 10.0 mi SE 9.2 mph - N/A   Clear
2:53 PM 82.0 °F - 33.1 °F 17% 29.84 in 10.0 mi ESE 6.9 mph 20.7 mph N/A   Clear
3:53 PM 82.0 °F - 28.9 °F 14% 29.81 in 10.0 mi Variable 5.8 mph 17.3 mph N/A   Clear
4:53 PM 81.0 °F - 28.0 °F 14% 29.80 in 10.0 mi Calm Calm - N/A   Clear
5:53 PM 81.0 °F - 32.0 °F 17% 29.79 in 10.0 mi WSW 6.9 mph 17.3 mph N/A   Clear
6:53 PM 78.1 °F - 34.0 °F 20% 29.82 in 10.0 mi West 12.7 mph - N/A   Clear
7:53 PM 72.0 °F - 36.0 °F 27% 29.84 in 10.0 mi WSW 9.2 mph - N/A   Clear
8:53 PM 69.1 °F - 36.0 °F 30% 29.85 in 10.0 mi WNW 8.1 mph - N/A   Clear
9:53 PM 62.1 °F - 37.9 °F 41% 29.87 in 10.0 mi Calm Calm - N/A   Clear
10:53 PM 60.1 °F - 39.9 °F 47% 29.86 in 10.0 mi North 9.2 mph - N/A   Clear
11:53 PM 51.1 °F - 39.9 °F 66% 29.88 in 10.0 mi NE 3.5 mph - N/A   Clear